Погода в Макеевке

Казахстан     50°08′19″N   82°14′42″E
темп.,
°C
ветер,
м/с
пор.,
м/с
влажн.,
%
обл.,
%
осадки,
мм/ч
давл.,
гПа
погр.,
м
2 марта, вт
вт200:00−4ю61397100 11.5 1020769
03:00−4ю51197100 4.5 1019646
06:00−4ююв41196100 6.6 1020537
09:00−3ююв51096100 1.1 1020498
12:00−2ю5997100 3.4 1019598
15:00−1ююв5898100 2.8 1017533
18:00−1ююв4898100 5.4 1016462
21:00−2ююв41198100 4.5 1016705
3 марта, ср
ср300:00−2ю51297100 7.3 1016609
03:00−4зсз3794100 1.7 1018263
06:00−9з119798 1.9 102021
09:00−8юз2596100 0.5 1022226
12:00−8зюз5793100 0.8 1023427
15:00−8юз2490100 0.1 1024431
18:00−12ююз2391100 0.2 102629
21:00−15юв228512 0.0 102920
4 марта, чт
чт400:00−15юв239015 0.0 103020
03:00−16юв238829 0.0 103020
06:00−16юв238732 0.0 103120
09:00−14юв348937 0.0 1030105
12:00−8юв378368 0.0 1029295
15:00−5ююв488043 0.0 1027446
18:00−8юв347633 0.0 102738
21:00−12юв337216 0.0 102824
5 марта, пт
пт500:00−13юв337026 0.0 102724
03:00−12юв357095 0.0 102383
06:00−10ю247898 0.0 102189
09:00−7ююв2480100 0.6 1019173
12:00−5вюв2295100 7.9 1021180
15:00−3юз6995100 3.6 1025617
18:00−4зюз5991100 3.9 1031282
21:00−7юв338893 0.0 103440
6 марта, сб
сб600:00−10юв339179 0.0 103428
03:00−11юв348770 0.0 103341
06:00−12юв348755 0.0 103235
09:00−9юв38880 0.0 1031194
12:00−4ююв49850 0.0 1028391
15:00−2ююв478770 0.0 1026407
18:00−6ююв238151 0.0 102621
21:00−9ююв227921 0.0 102721